Regional Weather Roundup
Issued by NWS

Home | Current Version | Previous Version | Text Only | Print | Product List | Glossary On
Versions: 1 2 3 4 5 6 7 8 9 10 11 12 13 14 15 16 17 18 19 20 21 22 23 24 25 26 27 28 29 30 31 32 33 34 35 36 37 38 39 40 41 42 43 44 45 46 47 48 49 50
000
ASUS44 KBMX 261010
RWRAL

ALABAMA REGIONAL WEATHER ROUNDUP
NATIONAL WEATHER SERVICE BIRMINGHAM AL
400 AM CST WED NOV 26 2014

NOTE: "FAIR" INDICATES FEW OR NO CLOUDS BELOW 12,000 FEET
WITH NO SIGNIFICANT WEATHER AND/OR OBSTRUCTIONS TO VISIBILITY.

THE REMARK "TC" DENOTES TEMPERATURE IN DEGREES CELSIUS.

ALZ001>011-014-016>018-020-261100-
NORTH ALABAMA

CITY           SKY/WX    TMP DP  RH WIND       PRES   REMARKS
MUSCLE SHOALS  CLEAR     31  25  78 W6        30.15R WCI  25
HUNTSVILLE     CLEAR     34  26  72 NW3       30.11S
DECATUR        CLEAR     32  27  81 CALM      30.12R
HALEYVILLE     FAIR      27  26  96 CALM      30.15R
GADSDEN        CLEAR     39  25  56 NW3       30.08S
$$

ALZ012-013-022-023-030>036-040>044-261100-
WEST CENTRAL ALABAMA

CITY           SKY/WX    TMP DP  RH WIND       PRES   REMARKS
TUSCALOOSA     CLEAR     34  29  82 W3        30.17R
$$

ALZ015-024>027-033>036-040>044-261100-
CENTRAL ALABAMA

CITY           SKY/WX    TMP DP  RH WIND       PRES   REMARKS
BIRMINGHAM     CLEAR     37  29  72 NW7       30.13R WCI  32
MONTGOMERY     CLEAR     42  31  64 W8        30.11S
SHELBY CO ARPT CLEAR     38  31  76 NW6       30.11S WCI  33
MAXWELL AFB    CLEAR     43  31  63 W5        30.11R
GREENVILLE     FAIR      42  30  62 NW6       30.11
$$

ALZ019-021-028-029-037-038-045>048-261100-
EAST CENTRAL ALABAMA

CITY           SKY/WX    TMP DP  RH WIND       PRES   REMARKS
ANNISTON       PTCLDY    40  31  70 SW9       30.08R WCI  34
ALEXANDER CITY PTCLDY    44  28  54 W3        30.08R
AUBURN         CLOUDY    45  28  53 NW8       30.08R
$$

ALZ051>064-261100-
SOUTHWEST ALABAMA

CITY           SKY/WX    TMP DP  RH WIND       PRES   REMARKS
MOBILE         CLEAR     36  30  79 NW5       30.18F WCI  32
BROOKLEY FIELD CLEAR     39  29  67 NW8       30.19S WCI  33
EVERGREEN      CLEAR     41  30  65 CALM      30.14F
$$

ALZ049-050-065>069-261100-
SOUTHEAST ALABAMA

CITY           SKY/WX    TMP DP  RH WIND       PRES   REMARKS
DOTHAN         CLOUDY    46  40  79 NW10      30.10R
OZARK          CLOUDY    45  37  71 W8        30.08R
TROY           MOCLDY    45  32  60 VRB3      30.11R
EUFAULA        FAIR      46  46 100 W5        30.05S
$$



USA.gov is the U.S. government's official web portal to all federal, state and local government web resources and services.